Regional Weather Roundup
Issued by NWS

Home | Current Version | Previous Version | Text Only | Print | Product List | Glossary On
Versions: 1 2 3 4 5 6 7 8 9 10 11 12 13 14 15 16 17 18 19 20 21 22 23 24 25 26 27 28 29 30 31 32 33 34 35 36 37 38 39 40 41 42 43 44 45 46 47 48 49 50
000
ASUS44 KLIX 260810
RWRLA
LOUISIANA WEATHER ROUNDUP
NATIONAL WEATHER SERVICE NEW ORLEANS LA
200 AM CST FRI DEC 26 2014

NOTE: "FAIR" INDICATES FEW OR NO CLOUDS BELOW 12,000 FEET WITH NO
      SIGNIFICANT WEATHER AND/OR OBSTRUCTIONS TO VISIBILITY.
      SKY/WX - SKY CONDITION AND SIGNIFICANT WEATHER.
      TMP - AIR TEMPERATURE.    DP   - DEWPOINT TEMPERATURE.
      RH  - RELATIVE HUMIDITY.  PRES - PRESSURE.
      HX  - HEAT INDEX.         WCI  - WIND CHILL INDEX.

*  THESE STATIONS ARE NOT NWS OR FAA STATIONS AND ARE NOT UNDER
   NWS QUALITY CONTROL.

LAZ040-048-061>063-065-066-069-260900-
SOUTHEAST LOUISIANA

CITY           SKY/WX    TMP DP  RH WIND       PRES   REMARKS
N.O. AUDUBON     N/A     47  47  97 MISG        N/A
N.O. INTL ARPT PTCLDY    46  41  82 CALM      30.18F
N.O. LAKEFRONT PTCLDY    50  45  83 E7        30.19F
N.O. DOWNTOWN* FAIR      54  43  66 E7        30.19S
SLIDELL        PTCLDY    38  36  92 CALM      30.20R
BATON ROUGE    CLOUDY    45  40  82 E8        30.16F
BOOTHVILLE     PTCLDY    51  48  89 E5        30.19F
BELLE CHASSE   CLEAR     40  37  89 NE5       30.18F
BOGALUSA*        N/A     41  38  88 CALM      30.23R
GALLIANO*      PTSUNNY   46  44  95 MISG      30.17F FOG
NEW ROADS*     FAIR      46  41  81 E6        30.16F
GONZALES*      PTSUNNY   47  42  82 E3        30.17F
HAMMOND*       NOT AVBL
HOUMA*         PTCLDY    42  42  99 NE5       30.16F FOG
PORT FOURCHON* CLOUDY    61  50  67 SE14      30.20S

$$

LAZ041-044-053-054-260900-
SOUTHWEST LOUISIANA

CITY           SKY/WX    TMP DP  RH WIND       PRES   REMARKS
LAKE CHARLES   CLOUDY    51  47  86 E8        30.10F
LAFAYETTE      CLOUDY    48  42  80 E3        30.15R
PATTERSON      CLOUDY    48  45  87 E6        30.16S
SALT POINT       N/A     60  46  59 CALM      30.14S
NEW IBERIA     CLOUDY    48  44  86 SE5       30.16R
CHENAULT AIRPK CLOUDY    49  47  90 E8        30.11F

$$

LAZ027-028-260900-
CENTRAL LOUISIANA

CITY           SKY/WX    TMP DP  RH WIND       PRES   REMARKS
FORT POLK      CLOUDY    47  43  87 SE9       30.10S
ALEXANDRIA INT MOCLDY    43  39  86 SE8       30.13S
ALEXANDRIA     PTCLDY    42  38  85 SE3       30.15R

$$

LAZ001-002-260900-
NORTHWEST LOUISIANA

CITY           SKY/WX    TMP DP  RH WIND       PRES   REMARKS
SHREVEPORT     CLOUDY    47  43  86 SE12      30.08R
BARKSDALE AFB  CLOUDY    48  42  81 S14       30.09R
DTN SHREVEPORT CLOUDY    47  41  80 SE13      30.09R

$$

LAZ014-016-260900-
NORTHEAST LOUISIANA

CITY           SKY/WX    TMP DP  RH WIND       PRES   REMARKS
MONROE         PTCLDY    41  36  82 CALM      30.16S
TALLULAH       CLOUDY    44  38  79 SE10      30.19S

$$



USA.gov is the U.S. government's official web portal to all federal, state and local government web resources and services.